{"data":{"norad_id":51123,"intl_designator":"2022-005V","name":"STARLINK-3392","alt_names":[],"object_type":"PAYLOAD","status":"ACTIVE","operator":null,"country":"US","launch_date":"2022-01-19","launch_site_code":"AFETR","launch_vehicle":null,"mission":null,"orbit_class":"UNKNOWN","rcs_meters":null,"size_class":null,"mass_kg":null,"dimensions":null,"purposes":["comms"],"wikipedia_slug":null,"has_3d_model":false,"image_url":null,"decayed_at":null,"tle_current":{"epoch":"2026-09-20T00:30:29.645280Z","epoch_age_seconds":89848,"freshness":"FRESH","line1":"1 51123U 22005V   26263.02117645  .00000554  00000+0  27531-4 0  9991","line2":"2 51123  53.1602 127.8933 0001213  84.1280 275.9861 15.34385724258335","mean_motion":15.34385724,"eccentricity":0.0001213,"inclination_deg":53.1602,"raan_deg":127.8933,"arg_perigee_deg":84.128,"mean_anomaly_deg":275.9861,"bstar":2.7531e-5,"rev_number":25833,"period_min":93.848631245477,"perigee_km":461.91587274853,"apogee_km":463.57547088471,"semimajor_km":6840.8826718166,"source":"CELESTRAK","updated_at":"2026-09-20T09:00:39.587274Z"}}}